This demonstration page uses our WeatherBlox Daily Observations layout. Learn more.

Left ArrowRight Arrow

39.51506, -84.39828

Hourly Observations for December 17, 2015

Temp ( °F °C ) Dew Point ( °F °C ) Humidity (%) Winds ( mph kmh ) Pressure ( in mb ) Visibility ( mi km ) Precip ( " mm )
12:15 am 00:15 Mostly Cloudy 60 15.3 48 9 66 66 WSW 12 19 29.77 1008 10 16 N/A
12:35 am 00:35 Mostly Cloudy 59 15.2 48 9 67 67 WSW 12 19 29.77 1008 10 16 N/A
12:55 am 00:55 Cloudy 58 14.2 47 8.5 69 69 WSW 12 19 29.77 1008 10 16 N/A
1:15 am 01:15 Mostly Cloudy 57 13.8 47 8.4 70 70 W 10 17 29.77 1008 10 16 N/A
1:35 am 01:35 Mostly Cloudy 54 12.2 40 4.6 60 60 NW 14 22 29.80 1009 10 16 N/A
1:55 am 01:55 Cloudy 49 9.6 34 1 55 55 WNW 14 22 29.80 1009 10 16 N/A
2:15 am 02:15 Mostly Cloudy 49 9.6 33 0.5 53 53 WNW 12 19 29.83 1010 10 16 N/A
2:35 am 02:35 Mostly Cloudy 47 8.2 31 -0.3 55 55 N 5 7 29.83 1010 10 16 N/A
2:55 am 02:55 Mostly Cloudy 47 8.2 32 undefined 57 57 N N/A 29.83 1010 10 16 N/A
3:15 am 03:15 Partly Cloudy 44 6.8 32 undefined 62 62 NNW 5 7 29.83 1010 10 16 N/A
3:35 am 03:35 Mostly Cloudy 43 6.3 32 undefined 64 64 NW 6 9 29.85 1011 10 16 N/A
3:55 am 03:55 Cloudy 43 5.9 31 -0.6 63 63 WNW 7 11 29.85 1011 10 16 N/A
4:15 am 04:15 Mostly Cloudy 42 5.5 31 -0.5 66 66 NW 6 9 29.85 1011 10 16 N/A
4:35 am 04:35 Partly Cloudy 42 5.5 31 -0.6 65 65 WNW 5 7 29.85 1011 10 16 N/A
4:55 am 04:55 Clear 40 4.7 31 -0.5 69 69 WNW 6 9 29.85 1011 10 16 N/A
5:15 am 05:15 Clear 39 4 31 -0.5 73 73 N 6 9 29.85 1011 10 16 N/A
5:35 am 05:35 Partly Cloudy 39 4 31 -0.3 74 74 NNW 5 7 29.85 1011 10 16 N/A
5:55 am 05:55 Partly Cloudy 39 4 30 -1.1 70 70 NW 3 6 29.85 1011 10 16 N/A
6:15 am 06:15 Clear 37 2.9 28 -2 71 71 NW 3 6 29.85 1011 10 16 N/A
6:35 am 06:35 Mostly Cloudy 37 3 28 -2 70 70 N N/A 29.85 1011 10 16 N/A
6:55 am 06:55 Partly Cloudy 37 2.6 29 -1.4 75 75 N 3 6 29.85 1011 10 16 N/A
7:15 am 07:15 Clear 37 2.6 27 -2.6 69 69 N N/A 29.88 1012 10 16 N/A
7:35 am 07:35 Clear 36 2.2 27 -2.7 70 70 N N/A 29.91 1013 10 16 N/A
7:55 am 07:55 Sunny 34 1.2 30 -1.1 85 85 N N/A 29.91 1013 10 16 N/A
8:15 am 08:15 Mostly Cloudy 34 1.2 30 -1 85 85 N N/A 29.91 1013 10 16 N/A
8:35 am 08:35 Partly Cloudy 34 1.2 30 -1 85 85 N N/A 29.91 1013 10 16 N/A
8:55 am 08:55 Partly Cloudy 35 1.4 31 -0.8 85 85 N N/A 29.91 1013 10 16 N/A
9:15 am 09:15 Partly Cloudy 37 2.8 28 -2.2 70 70 W 3 6 29.88 1012 10 16 N/A
9:35 am 09:35 Sunny 39 4 29 -1.6 67 67 NW 6 9 29.88 1012 10 16 N/A
9:55 am 09:55 Sunny 39 4 28 -2 65 65 WNW 5 7 29.88 1012 10 16 N/A
10:15 am 10:15 Partly Cloudy 39 4 27 -2.9 61 61 W 12 19 29.88 1012 10 16 N/A
10:35 am 10:35 Sunny 39 4 26 -3.1 60 60 NW 9 15 29.91 1013 10 16 N/A
10:55 am 10:55 Partly Cloudy 41 4.8 28 -2.5 60 60 NW 12 19 29.91 1013 10 16 N/A
11:15 am 11:15 Mostly Cloudy 39 4 27 -3 61 61 NW 9 15 29.91 1013 10 16 N/A
11:35 am 11:35 Cloudy 39 4 27 -3 61 61 NNW 9 15 29.91 1013 10 16 N/A
11:55 am 11:55 Cloudy 39 4 26 -3.2 60 60 WNW 9 15 29.91 1013 10 16 N/A
12:15 pm 12:15 Cloudy 39 4.1 27 -2.9 61 61 W 9 15 29.91 1013 10 16 N/A
12:35 pm 12:35 Partly Cloudy 40 4.7 25 -3.7 55 55 W 12 19 29.91 1013 10 16 N/A
12:55 pm 12:55 Mostly Cloudy 42 5.4 26 -3.2 54 54 WSW 16 26 29.91 1013 10 16 N/A
1:15 pm 13:15 Cloudy 39 4 26 -3.3 59 59 WNW 16 26 29.91 1013 10 16 N/A
1:35 pm 13:35 Cloudy 39 4 26 -3.2 60 60 NW 13 20 29.91 1013 10 16 N/A
1:55 pm 13:55 Cloudy 39 4 26 -3.4 59 59 WNW 9 15 29.91 1013 10 16 N/A
2:15 pm 14:15 Cloudy 38 3.4 26 -3.5 61 61 NW 10 17 29.91 1013 10 16 N/A
2:35 pm 14:35 Cloudy 37 2.8 25 -3.7 63 63 NW 10 17 29.91 1013 10 16 N/A
2:55 pm 14:55 Cloudy 37 2.6 26 -3.6 64 64 NW 8 13 29.91 1013 10 16 N/A
3:15 pm 15:15 Cloudy 37 2.6 26 -3.4 65 65 W 12 19 29.91 1013 10 16 N/A
3:35 pm 15:35 Cloudy 37 2.6 26 -3.4 65 65 WNW 12 19 29.91 1013 10 16 N/A
3:55 pm 15:55 Cloudy 37 2.6 26 -3.1 66 66 NW 7 11 29.91 1013 10 16 N/A
4:15 pm 16:15 Cloudy 37 2.6 27 -3 67 67 NW 8 13 29.94 1014 10 16 N/A
4:35 pm 16:35 Cloudy 37 2.6 26 -3.2 66 66 WNW 12 19 29.94 1014 10 16 N/A
4:55 pm 16:55 Cloudy 37 2.6 27 -3 67 67 W 6 9 29.94 1014 10 16 N/A
5:15 pm 17:15 Cloudy 37 2.6 27 -2.8 68 68 NW 12 19 29.94 1014 10 16 N/A
5:35 pm 17:35 Cloudy 36 2 26 -3.2 69 69 WNW 9 15 30.00 1016 10 16 N/A
5:55 pm 17:55 Cloudy 34 1.2 25 -3.9 69 69 W 9 15 30.00 1016 10 16 N/A
6:15 pm 18:15 Cloudy 34 1.2 25 -4.1 68 68 WNW 8 13 30.00 1016 10 16 N/A
6:35 pm 18:35 Cloudy 34 1.2 25 -4.1 68 68 WNW 10 17 30.00 1016 10 16 N/A
6:55 pm 18:55 Cloudy 34 1.2 25 -4 69 69 WNW 5 7 30.00 1016 10 16 N/A
7:15 pm 19:15 Cloudy 34 1.2 25 -4.1 68 68 NW 8 13 30.00 1016 10 16 N/A
7:35 pm 19:35 Cloudy 34 1.2 25 -4 69 69 NNW 6 9 30.03 1017 10 16 N/A
7:55 pm 19:55 Cloudy 34 1.2 24 -4.2 68 68 NW 8 13 30.03 1017 10 16 N/A
8:15 pm 20:15 Cloudy 34 1.2 25 -4.1 68 68 WNW 7 11 30.03 1017 10 16 N/A
8:35 pm 20:35 Cloudy 34 1.2 24 -4.2 68 68 NW 6 9 30.03 1017 10 16 N/A
8:55 pm 20:55 Cloudy 34 1.2 24 -4.5 66 66 NW 6 9 30.03 1017 10 16 N/A
9:15 pm 21:15 Cloudy 34 1.2 24 -4.4 67 67 NW 7 11 30.03 1017 10 16 N/A
9:35 pm 21:35 Cloudy 34 1.2 24 -4.5 66 66 WNW 7 11 30.03 1017 10 16 N/A
9:55 pm 21:55 Cloudy 34 1.2 24 -4.4 67 67 NW 6 9 30.03 1017 10 16 N/A
10:15 pm 22:15 Cloudy 34 1.2 24 -4.5 66 66 NW 8 13 30.03 1017 10 16 N/A
10:35 pm 22:35 Cloudy 34 1.2 24 -4.6 66 66 NNW 9 15 30.03 1017 10 16 N/A
10:55 pm 22:55 Cloudy 34 1.2 24 -4.5 66 66 NW 7 11 30.03 1017 10 16 N/A
11:15 pm 23:15 Cloudy 34 1.2 23 -4.9 64 64 NW 7 11 30.03 1017 10 16 N/A
11:35 pm 23:35 Cloudy 34 1.2 24 -4.7 65 65 WNW 8 13 30.03 1017 10 16 N/A
11:55 pm 23:55 Cloudy 34 1.2 23 -5 64 64 NW 7 11 30.03 1017 10 16 N/A

Powered by AerisWeather